Year,Month,Day,Hour,Minute,Value (Times are PST for temperature in C)
2016,06,13,00,00,12.70
2016,06,13,00,01,12.60
2016,06,13,00,02,12.60
2016,06,13,00,03,12.60
2016,06,13,00,04,12.60
2016,06,13,00,05,12.60
2016,06,13,00,06,12.60
2016,06,13,00,07,12.60
2016,06,13,00,08,12.60
2016,06,13,00,09,12.60
2016,06,13,00,10,12.50
2016,06,13,00,11,12.50
2016,06,13,00,12,12.50
2016,06,13,00,13,12.50
2016,06,13,00,14,12.50
2016,06,13,00,15,12.40
2016,06,13,00,16,12.40
2016,06,13,00,17,12.40
2016,06,13,00,18,12.40
2016,06,13,00,19,12.40
2016,06,13,00,20,12.40
2016,06,13,00,21,12.40
2016,06,13,00,22,12.40
2016,06,13,00,23,12.40
2016,06,13,00,24,12.40
2016,06,13,00,25,12.40
2016,06,13,00,26,12.40
2016,06,13,00,27,12.40
2016,06,13,00,28,12.40
2016,06,13,00,29,12.40
2016,06,13,00,30,12.40
2016,06,13,00,31,12.40
2016,06,13,00,32,12.40
2016,06,13,00,33,12.40
2016,06,13,00,34,12.40
2016,06,13,00,35,12.40
2016,06,13,00,36,12.40
2016,06,13,00,37,12.40
2016,06,13,00,38,12.40
2016,06,13,00,39,12.40
2016,06,13,00,40,12.40
2016,06,13,00,41,12.40
2016,06,13,00,42,12.40
2016,06,13,00,43,12.40
2016,06,13,00,44,12.40
2016,06,13,00,45,12.40
2016,06,13,00,46,12.40
2016,06,13,00,47,12.40
2016,06,13,00,48,12.40
2016,06,13,00,49,12.40
2016,06,13,00,50,12.40
2016,06,13,00,51,12.40
2016,06,13,00,52,12.40
2016,06,13,00,53,12.40
2016,06,13,00,54,12.40
2016,06,13,00,55,12.40
2016,06,13,00,56,12.50
2016,06,13,00,57,12.50
2016,06,13,00,58,12.50
2016,06,13,00,59,12.50
2016,06,13,01,00,12.50
2016,06,13,01,01,12.50
2016,06,13,01,02,12.50
2016,06,13,01,03,12.50
2016,06,13,01,04,12.50
2016,06,13,01,05,12.50
2016,06,13,01,06,12.50
2016,06,13,01,07,12.50
2016,06,13,01,08,12.50
2016,06,13,01,09,12.50
2016,06,13,01,10,12.60
2016,06,13,01,11,12.60
2016,06,13,01,12,12.60
2016,06,13,01,13,12.60
2016,06,13,01,14,12.60
2016,06,13,01,15,12.60
2016,06,13,01,16,12.60
2016,06,13,01,17,12.60
2016,06,13,01,18,12.60
2016,06,13,01,19,12.60
2016,06,13,01,20,12.60
2016,06,13,01,21,12.60
2016,06,13,01,22,12.60
2016,06,13,01,23,12.60
2016,06,13,01,24,12.60
2016,06,13,01,25,12.60
2016,06,13,01,26,12.60
2016,06,13,01,27,12.60
2016,06,13,01,28,12.60
2016,06,13,01,29,12.60
2016,06,13,01,30,12.60
2016,06,13,01,31,12.60
2016,06,13,01,32,12.60
2016,06,13,01,33,12.60
2016,06,13,01,34,12.60
2016,06,13,01,35,12.60
2016,06,13,01,36,12.60
2016,06,13,01,37,12.60
2016,06,13,01,38,12.60
2016,06,13,01,39,12.60
2016,06,13,01,40,12.60
2016,06,13,01,41,12.60
2016,06,13,01,42,12.60
2016,06,13,01,43,12.60
2016,06,13,01,44,12.60
2016,06,13,01,45,12.60
2016,06,13,01,46,12.60
2016,06,13,01,47,12.50
2016,06,13,01,48,12.50
2016,06,13,01,49,12.50
2016,06,13,01,50,12.50
2016,06,13,01,51,12.50
2016,06,13,01,52,12.50
2016,06,13,01,53,12.50
2016,06,13,01,54,12.50
2016,06,13,01,55,12.50
2016,06,13,01,56,12.50
2016,06,13,01,57,12.50
2016,06,13,01,58,12.50
2016,06,13,01,59,12.50
2016,06,13,02,00,12.50
2016,06,13,02,01,12.50
2016,06,13,02,02,12.50
2016,06,13,02,03,12.50
2016,06,13,02,04,12.50
2016,06,13,02,05,12.60
2016,06,13,02,06,12.60
2016,06,13,02,07,12.60
2016,06,13,02,08,12.60
2016,06,13,02,09,12.60
2016,06,13,02,10,12.60
2016,06,13,02,11,12.60
2016,06,13,02,12,12.60
2016,06,13,02,13,12.60
2016,06,13,02,14,12.60
2016,06,13,02,15,12.60
2016,06,13,02,16,12.70
2016,06,13,02,17,12.70
2016,06,13,02,18,12.70
2016,06,13,02,19,12.70
2016,06,13,02,20,12.70
2016,06,13,02,21,12.70
2016,06,13,02,22,12.70
2016,06,13,02,23,12.70
2016,06,13,02,24,12.70
2016,06,13,02,25,12.70
2016,06,13,02,26,12.70
2016,06,13,02,27,12.70
2016,06,13,02,28,12.70
2016,06,13,02,29,12.70
2016,06,13,02,30,12.70
2016,06,13,02,31,12.70
2016,06,13,02,32,12.70
2016,06,13,02,33,12.70
2016,06,13,02,34,12.70
2016,06,13,02,35,12.70
2016,06,13,02,36,12.70
2016,06,13,02,37,12.70
2016,06,13,02,38,12.70
2016,06,13,02,39,12.70
2016,06,13,02,40,12.70
2016,06,13,02,41,12.70
2016,06,13,02,42,12.70
2016,06,13,02,43,12.70
2016,06,13,02,44,12.70
2016,06,13,02,45,12.70
2016,06,13,02,46,12.70
2016,06,13,02,47,12.70
2016,06,13,02,48,12.70
2016,06,13,02,49,12.70
2016,06,13,02,50,12.70
2016,06,13,02,51,12.70
2016,06,13,02,52,12.70
2016,06,13,02,53,12.70
2016,06,13,02,54,12.70
2016,06,13,02,55,12.70
2016,06,13,02,56,12.70
2016,06,13,02,57,12.70
2016,06,13,02,58,12.70
2016,06,13,02,59,12.70
2016,06,13,03,00,12.70
2016,06,13,03,01,12.70
2016,06,13,03,02,12.70
2016,06,13,03,03,12.70
2016,06,13,03,04,12.70
2016,06,13,03,05,12.70
2016,06,13,03,06,12.70
2016,06,13,03,07,12.70
2016,06,13,03,08,12.70
2016,06,13,03,09,12.70
2016,06,13,03,10,12.70
2016,06,13,03,11,12.70
2016,06,13,03,12,12.70
2016,06,13,03,13,12.70
2016,06,13,03,14,12.70
2016,06,13,03,15,12.70
2016,06,13,03,16,12.70
2016,06,13,03,17,12.70
2016,06,13,03,18,12.70
2016,06,13,03,19,12.70
2016,06,13,03,20,12.70
2016,06,13,03,21,12.70
2016,06,13,03,22,12.70
2016,06,13,03,23,12.80
2016,06,13,03,24,12.80
2016,06,13,03,25,12.80
2016,06,13,03,26,12.80
2016,06,13,03,27,12.80
2016,06,13,03,28,12.80
2016,06,13,03,29,12.80
2016,06,13,03,30,12.80
2016,06,13,03,31,12.80
2016,06,13,03,32,12.80
2016,06,13,03,33,12.80
2016,06,13,03,34,12.80
2016,06,13,03,35,12.80
2016,06,13,03,36,12.80
2016,06,13,03,37,12.80
2016,06,13,03,38,12.80
2016,06,13,03,39,12.80
2016,06,13,03,40,12.80
2016,06,13,03,41,12.80
2016,06,13,03,42,12.80
2016,06,13,03,43,12.80
2016,06,13,03,44,12.80
2016,06,13,03,45,12.90
2016,06,13,03,46,12.90
2016,06,13,03,47,12.90
2016,06,13,03,48,12.90
2016,06,13,03,49,12.90
2016,06,13,03,50,12.90
2016,06,13,03,51,12.90
2016,06,13,03,52,12.90
2016,06,13,03,53,12.90
2016,06,13,03,54,12.90
2016,06,13,03,55,12.90
2016,06,13,03,56,12.90
2016,06,13,03,57,12.90
2016,06,13,03,58,12.90
2016,06,13,03,59,12.90
2016,06,13,04,00,12.90
2016,06,13,04,01,12.90
2016,06,13,04,02,12.90
2016,06,13,04,03,12.90
2016,06,13,04,04,12.90
2016,06,13,04,05,12.90
2016,06,13,04,06,12.90
2016,06,13,04,07,12.90
2016,06,13,04,08,12.90
2016,06,13,04,09,12.90
2016,06,13,04,10,12.90
2016,06,13,04,11,12.90
2016,06,13,04,12,12.90
2016,06,13,04,13,12.90
2016,06,13,04,14,12.90
2016,06,13,04,15,12.90
2016,06,13,04,16,12.90
2016,06,13,04,17,12.90
2016,06,13,04,18,12.90
2016,06,13,04,19,12.90
2016,06,13,04,20,12.90
2016,06,13,04,21,12.90
2016,06,13,04,22,12.90
2016,06,13,04,23,12.90
2016,06,13,04,24,12.90
2016,06,13,04,25,12.90
2016,06,13,04,26,12.90
2016,06,13,04,27,12.90
2016,06,13,04,28,12.90
2016,06,13,04,29,12.90
2016,06,13,04,30,12.90
2016,06,13,04,31,12.90
2016,06,13,04,32,12.90
2016,06,13,04,33,12.90
2016,06,13,04,34,12.90
2016,06,13,04,35,12.90
2016,06,13,04,36,12.90
2016,06,13,04,37,12.90
2016,06,13,04,38,12.90
2016,06,13,04,39,12.80
2016,06,13,04,40,12.80
2016,06,13,04,41,12.80
2016,06,13,04,42,12.80
2016,06,13,04,43,12.80
2016,06,13,04,44,12.80
2016,06,13,04,45,12.80
2016,06,13,04,46,12.80
2016,06,13,04,47,12.80
2016,06,13,04,48,12.80
2016,06,13,04,49,12.80
2016,06,13,04,50,12.80
2016,06,13,04,51,12.80
2016,06,13,04,52,12.80
2016,06,13,04,53,12.80
2016,06,13,04,54,12.80
2016,06,13,04,55,12.80
2016,06,13,04,56,12.80
2016,06,13,04,57,12.80
2016,06,13,04,58,12.80
2016,06,13,04,59,12.80
2016,06,13,05,00,12.70
2016,06,13,05,01,12.70
2016,06,13,05,02,12.70
2016,06,13,05,03,12.70
2016,06,13,05,04,12.70
2016,06,13,05,05,12.70
2016,06,13,05,06,12.70
2016,06,13,05,07,12.70
2016,06,13,05,08,12.70
2016,06,13,05,09,12.70
2016,06,13,05,10,12.70
2016,06,13,05,11,12.70
2016,06,13,05,12,12.70
2016,06,13,05,13,12.70
2016,06,13,05,14,12.70
2016,06,13,05,15,12.70
2016,06,13,05,16,12.70
2016,06,13,05,17,12.70
2016,06,13,05,18,12.70
2016,06,13,05,19,12.70
2016,06,13,05,20,12.70
2016,06,13,05,21,12.70
2016,06,13,05,22,12.60
2016,06,13,05,23,12.70
2016,06,13,05,24,12.60
2016,06,13,05,25,12.60
2016,06,13,05,26,12.60
2016,06,13,05,27,12.60
2016,06,13,05,28,12.60
2016,06,13,05,29,12.60
2016,06,13,05,30,12.60
2016,06,13,05,31,12.60
2016,06,13,05,32,12.60
2016,06,13,05,33,12.60
2016,06,13,05,34,12.60
2016,06,13,05,35,12.60
2016,06,13,05,36,12.60
2016,06,13,05,37,12.60
2016,06,13,05,38,12.60
2016,06,13,05,39,12.70
2016,06,13,05,40,12.70
2016,06,13,05,41,12.70
2016,06,13,05,42,12.70
2016,06,13,05,43,12.70
2016,06,13,05,44,12.70
2016,06,13,05,45,12.70
2016,06,13,05,46,12.70
2016,06,13,05,47,12.70
2016,06,13,05,48,12.70
2016,06,13,05,49,12.70
2016,06,13,05,50,12.70
2016,06,13,05,51,12.70
2016,06,13,05,52,12.70
2016,06,13,05,53,12.70
2016,06,13,05,54,12.70
2016,06,13,05,55,12.70
2016,06,13,05,56,12.70
2016,06,13,05,57,12.70
2016,06,13,05,58,12.80
2016,06,13,05,59,12.80
2016,06,13,06,00,12.80
2016,06,13,06,01,12.80
2016,06,13,06,02,12.80
2016,06,13,06,03,12.80
2016,06,13,06,04,12.90
2016,06,13,06,05,12.90
2016,06,13,06,06,12.90
2016,06,13,06,07,12.90
2016,06,13,06,08,13.00
2016,06,13,06,09,13.00
2016,06,13,06,10,13.10
2016,06,13,06,11,13.10
2016,06,13,06,12,13.10
2016,06,13,06,13,13.10
2016,06,13,06,14,13.10
2016,06,13,06,15,13.10
2016,06,13,06,16,13.10
2016,06,13,06,17,13.10
2016,06,13,06,18,13.10
2016,06,13,06,19,13.10
2016,06,13,06,20,13.10
2016,06,13,06,21,13.10
2016,06,13,06,22,13.10
2016,06,13,06,23,13.10
2016,06,13,06,24,13.10
2016,06,13,06,25,13.10
2016,06,13,06,26,13.10
2016,06,13,06,27,13.10
2016,06,13,06,28,13.10
2016,06,13,06,29,13.10
2016,06,13,06,30,13.10
2016,06,13,06,31,13.10
2016,06,13,06,32,13.10
2016,06,13,06,33,13.10
2016,06,13,06,34,13.10
2016,06,13,06,35,13.10
2016,06,13,06,36,13.10
2016,06,13,06,37,13.10
2016,06,13,06,38,13.10
2016,06,13,06,39,13.20
2016,06,13,06,40,13.20
2016,06,13,06,41,13.20
2016,06,13,06,42,13.20
2016,06,13,06,43,13.20
2016,06,13,06,44,13.20
2016,06,13,06,45,13.20
2016,06,13,06,46,13.20
2016,06,13,06,47,13.20
2016,06,13,06,48,13.20
2016,06,13,06,49,13.20
2016,06,13,06,50,13.20
2016,06,13,06,51,13.20
2016,06,13,06,52,13.20
2016,06,13,06,53,13.20
2016,06,13,06,54,13.20
2016,06,13,06,55,13.20
2016,06,13,06,56,13.20
2016,06,13,06,57,13.20
2016,06,13,06,58,13.30
2016,06,13,06,59,13.30
2016,06,13,07,00,13.30
2016,06,13,07,01,13.30
2016,06,13,07,02,13.40
2016,06,13,07,03,13.40
2016,06,13,07,04,13.40
2016,06,13,07,05,13.50
2016,06,13,07,06,13.50
2016,06,13,07,07,13.50
2016,06,13,07,08,13.50
2016,06,13,07,09,13.50
2016,06,13,07,10,13.40
2016,06,13,07,11,13.40
2016,06,13,07,12,13.40
2016,06,13,07,13,13.40
2016,06,13,07,14,13.30
2016,06,13,07,15,13.30
2016,06,13,07,16,13.30
2016,06,13,07,17,13.30
2016,06,13,07,18,13.30
2016,06,13,07,19,13.30
2016,06,13,07,20,13.30
2016,06,13,07,21,13.30
2016,06,13,07,22,13.30
2016,06,13,07,23,13.30
2016,06,13,07,24,13.30
2016,06,13,07,25,13.30
2016,06,13,07,26,13.30
2016,06,13,07,27,13.30
2016,06,13,07,28,13.30
2016,06,13,07,29,13.30
2016,06,13,07,30,13.30
2016,06,13,07,31,13.30
2016,06,13,07,32,13.30
2016,06,13,07,33,13.30
2016,06,13,07,34,13.30
2016,06,13,07,35,13.20
2016,06,13,07,36,13.20
2016,06,13,07,37,13.20
2016,06,13,07,38,13.20
2016,06,13,07,39,13.20
2016,06,13,07,40,13.20
2016,06,13,07,41,13.20
2016,06,13,07,42,13.20
2016,06,13,07,43,13.20
2016,06,13,07,44,13.20
2016,06,13,07,45,13.20
2016,06,13,07,46,13.20
2016,06,13,07,47,13.20
2016,06,13,07,48,13.20
2016,06,13,07,49,13.20
2016,06,13,07,50,13.20
2016,06,13,07,51,13.20
2016,06,13,07,52,13.20
2016,06,13,07,53,13.20
2016,06,13,07,54,13.20
2016,06,13,07,55,13.20
2016,06,13,07,56,13.10
2016,06,13,07,57,13.10
2016,06,13,07,58,13.10
2016,06,13,07,59,13.00
2016,06,13,08,00,13.00
2016,06,13,08,01,12.90
2016,06,13,08,02,12.90
2016,06,13,08,03,12.90
2016,06,13,08,04,12.80
2016,06,13,08,05,12.80
2016,06,13,08,06,12.80
2016,06,13,08,07,12.70
2016,06,13,08,08,12.70
2016,06,13,08,09,12.70
2016,06,13,08,10,12.60
2016,06,13,08,11,12.60
2016,06,13,08,12,12.60
2016,06,13,08,13,12.50
2016,06,13,08,14,12.50
2016,06,13,08,15,12.50
2016,06,13,08,16,12.40
2016,06,13,08,17,12.40
2016,06,13,08,18,12.40
2016,06,13,08,19,12.30
2016,06,13,08,20,12.30
2016,06,13,08,21,12.30
2016,06,13,08,22,12.30
2016,06,13,08,23,12.30
2016,06,13,08,24,12.30
2016,06,13,08,25,12.30
2016,06,13,08,26,12.30
2016,06,13,08,27,12.30
2016,06,13,08,28,12.30
2016,06,13,08,29,12.30
2016,06,13,08,30,12.30
2016,06,13,08,31,12.30
2016,06,13,08,32,12.30
2016,06,13,08,33,12.30
2016,06,13,08,34,12.30
2016,06,13,08,35,12.30
2016,06,13,08,36,12.30
2016,06,13,08,37,12.40
2016,06,13,08,38,12.40
2016,06,13,08,39,12.40
2016,06,13,08,40,12.40
2016,06,13,08,41,12.50
2016,06,13,08,42,12.50
2016,06,13,08,43,12.50
2016,06,13,08,44,12.60
2016,06,13,08,45,12.60
2016,06,13,08,46,12.70
2016,06,13,08,47,12.70
2016,06,13,08,48,12.70
2016,06,13,08,49,12.80
2016,06,13,08,50,12.80
2016,06,13,08,51,12.80
2016,06,13,08,52,12.80
2016,06,13,08,53,12.80
2016,06,13,08,54,12.80
2016,06,13,08,55,12.90
2016,06,13,08,56,12.90
2016,06,13,08,57,12.90
2016,06,13,08,58,12.90
2016,06,13,08,59,12.90
2016,06,13,09,00,12.90
2016,06,13,09,01,12.90
2016,06,13,09,02,12.90
2016,06,13,09,03,12.90
2016,06,13,09,04,13.00
2016,06,13,09,05,13.00
2016,06,13,09,06,13.00
2016,06,13,09,07,13.10
2016,06,13,09,08,13.10
2016,06,13,09,09,13.10
2016,06,13,09,10,13.20
2016,06,13,09,11,13.20
2016,06,13,09,12,13.30
2016,06,13,09,13,13.30
2016,06,13,09,14,13.30
2016,06,13,09,15,13.30
2016,06,13,09,16,13.30
2016,06,13,09,17,13.30
2016,06,13,09,18,13.30
2016,06,13,09,19,13.30
2016,06,13,09,20,13.30
2016,06,13,09,21,13.30
2016,06,13,09,22,13.30
2016,06,13,09,23,13.30
2016,06,13,09,24,13.20
2016,06,13,09,25,13.20
2016,06,13,09,26,13.20
2016,06,13,09,27,13.20
2016,06,13,09,28,13.20
2016,06,13,09,29,13.20
2016,06,13,09,30,13.20
2016,06,13,09,31,13.20
2016,06,13,09,32,13.20
2016,06,13,09,33,13.20
2016,06,13,09,34,13.20
2016,06,13,09,35,13.20
2016,06,13,09,36,13.20
2016,06,13,09,37,13.20
2016,06,13,09,38,13.20
2016,06,13,09,39,13.20
2016,06,13,09,40,13.30
2016,06,13,09,41,13.30
2016,06,13,09,42,13.40
2016,06,13,09,43,13.50
2016,06,13,09,44,13.50
2016,06,13,09,45,13.60
2016,06,13,09,46,13.70
2016,06,13,09,47,13.70
2016,06,13,09,48,13.80
2016,06,13,09,49,13.80
2016,06,13,09,50,13.80
2016,06,13,09,51,13.80
2016,06,13,09,52,13.80
2016,06,13,09,53,13.80
2016,06,13,09,54,13.80
2016,06,13,09,55,13.80
2016,06,13,09,56,13.70
2016,06,13,09,57,13.70
2016,06,13,09,58,13.70
2016,06,13,09,59,13.70
2016,06,13,10,00,13.70
2016,06,13,10,01,13.80
2016,06,13,10,02,13.80
2016,06,13,10,03,13.90
2016,06,13,10,04,13.90
2016,06,13,10,05,14.00
2016,06,13,10,06,14.00
2016,06,13,10,07,14.10
2016,06,13,10,08,14.10
2016,06,13,10,09,14.20
2016,06,13,10,10,14.20
2016,06,13,10,11,14.30
2016,06,13,10,12,14.30
2016,06,13,10,13,14.30
2016,06,13,10,14,14.40
2016,06,13,10,15,14.40
2016,06,13,10,16,14.40
2016,06,13,10,17,14.50
2016,06,13,10,18,14.50
2016,06,13,10,19,14.50
2016,06,13,10,20,14.60
2016,06,13,10,21,14.60
2016,06,13,10,22,14.60
2016,06,13,10,23,14.60
2016,06,13,10,24,14.70
2016,06,13,10,25,14.80
2016,06,13,10,26,14.80
2016,06,13,10,27,14.80
2016,06,13,10,28,14.80
2016,06,13,10,29,14.70
2016,06,13,10,30,14.60
2016,06,13,10,31,14.60
2016,06,13,10,32,14.60
2016,06,13,10,33,14.60
2016,06,13,10,34,14.60
2016,06,13,10,35,14.50
2016,06,13,10,36,14.50
2016,06,13,10,37,14.50
2016,06,13,10,38,14.40
2016,06,13,10,39,14.40
2016,06,13,10,40,14.40
2016,06,13,10,41,14.40
2016,06,13,10,42,14.40
2016,06,13,10,43,14.40
2016,06,13,10,44,14.30
2016,06,13,10,45,14.20
2016,06,13,10,46,14.10
2016,06,13,10,47,14.10
2016,06,13,10,48,14.10
2016,06,13,10,49,14.10
2016,06,13,10,50,14.00
2016,06,13,10,51,14.00
2016,06,13,10,52,14.00
2016,06,13,10,53,14.00
2016,06,13,10,54,14.10
2016,06,13,10,55,14.10
2016,06,13,10,56,14.10
2016,06,13,10,57,14.10
2016,06,13,10,58,14.10
2016,06,13,10,59,14.20
2016,06,13,11,00,14.20
2016,06,13,11,01,14.20
2016,06,13,11,02,14.10
2016,06,13,11,03,14.20
2016,06,13,11,04,14.10
2016,06,13,11,05,14.20
2016,06,13,11,06,14.20
2016,06,13,11,07,14.20
2016,06,13,11,08,14.30
2016,06,13,11,09,14.30
2016,06,13,11,10,14.30
2016,06,13,11,11,14.30
2016,06,13,11,12,14.30
2016,06,13,11,13,14.30
2016,06,13,11,14,14.30
2016,06,13,11,15,14.30
2016,06,13,11,16,14.30
2016,06,13,11,17,14.40
2016,06,13,11,18,14.50
2016,06,13,11,19,14.60
2016,06,13,11,20,14.60
2016,06,13,11,21,14.60
2016,06,13,11,22,14.70
2016,06,13,11,23,14.70
2016,06,13,11,24,14.70
2016,06,13,11,25,14.60
2016,06,13,11,26,14.60
2016,06,13,11,27,14.60
2016,06,13,11,28,14.60
2016,06,13,11,29,14.60
2016,06,13,11,30,14.60
2016,06,13,11,31,14.50
2016,06,13,11,32,14.50
2016,06,13,11,33,14.50
2016,06,13,11,34,14.40
2016,06,13,11,35,14.40
2016,06,13,11,36,14.40
2016,06,13,11,37,14.40
2016,06,13,11,38,14.40
2016,06,13,11,39,14.40
2016,06,13,11,40,14.50
2016,06,13,11,41,14.60
2016,06,13,11,42,14.80
2016,06,13,11,43,14.90
2016,06,13,11,44,15.00
2016,06,13,11,45,15.10
2016,06,13,11,46,15.10
2016,06,13,11,47,15.20
2016,06,13,11,48,15.20
2016,06,13,11,49,15.20
2016,06,13,11,50,15.20
2016,06,13,11,51,15.20
2016,06,13,11,52,15.20
2016,06,13,11,53,15.20
2016,06,13,11,54,15.20
2016,06,13,11,55,15.20
2016,06,13,11,56,15.20
2016,06,13,11,57,15.20
2016,06,13,11,58,15.20
2016,06,13,11,59,15.20
2016,06,13,12,00,15.10
2016,06,13,12,01,15.10
2016,06,13,12,02,15.20
2016,06,13,12,03,15.20
2016,06,13,12,04,15.30
2016,06,13,12,05,15.30
2016,06,13,12,06,15.20
2016,06,13,12,07,15.20
2016,06,13,12,08,15.20
2016,06,13,12,09,15.20
2016,06,13,12,10,15.10
2016,06,13,12,11,15.10
2016,06,13,12,12,15.10
2016,06,13,12,13,15.00
2016,06,13,12,14,15.00
2016,06,13,12,15,14.90
2016,06,13,12,16,14.80
2016,06,13,12,17,14.70
2016,06,13,12,18,14.70
2016,06,13,12,19,14.60
2016,06,13,12,20,14.60
2016,06,13,12,21,14.70
2016,06,13,12,22,14.70
2016,06,13,12,23,14.70
2016,06,13,12,24,14.70
2016,06,13,12,25,14.70
2016,06,13,12,26,14.70
2016,06,13,12,27,14.70
2016,06,13,12,28,14.70
2016,06,13,12,29,14.70
2016,06,13,12,30,14.80
2016,06,13,12,31,15.00
2016,06,13,12,32,15.00
2016,06,13,12,33,15.10
2016,06,13,12,34,15.10
2016,06,13,12,35,15.20
2016,06,13,12,36,15.20
2016,06,13,12,37,15.30
2016,06,13,12,38,15.30
2016,06,13,12,39,15.30
2016,06,13,12,40,15.40
2016,06,13,12,41,15.40
2016,06,13,12,42,15.40
2016,06,13,12,43,15.40
2016,06,13,12,44,15.40
2016,06,13,12,45,15.30
2016,06,13,12,46,15.20
2016,06,13,12,47,15.10
2016,06,13,12,48,15.10
2016,06,13,12,49,15.10
2016,06,13,12,50,15.10
2016,06,13,12,51,15.20
2016,06,13,12,52,15.40
2016,06,13,12,53,15.50
2016,06,13,12,54,15.60
2016,06,13,12,55,15.70
2016,06,13,12,56,15.70
2016,06,13,12,57,15.70
2016,06,13,12,58,15.70
2016,06,13,12,59,15.70
2016,06,13,13,00,15.60
2016,06,13,13,01,15.60
2016,06,13,13,02,15.50
2016,06,13,13,03,15.50
2016,06,13,13,04,15.50
2016,06,13,13,05,15.60
2016,06,13,13,06,15.60
2016,06,13,13,07,15.60
2016,06,13,13,08,15.60
2016,06,13,13,09,15.70
2016,06,13,13,10,15.70
2016,06,13,13,11,15.80
2016,06,13,13,12,15.80
2016,06,13,13,13,15.90
2016,06,13,13,14,15.90
2016,06,13,13,15,15.90
2016,06,13,13,16,15.90
2016,06,13,13,17,15.90
2016,06,13,13,18,15.90
2016,06,13,13,19,15.90
2016,06,13,13,20,15.90
2016,06,13,13,21,15.90
2016,06,13,13,22,15.90
2016,06,13,13,23,15.90
2016,06,13,13,24,15.90
2016,06,13,13,25,15.90
2016,06,13,13,26,15.90
2016,06,13,13,27,15.90
2016,06,13,13,28,15.90
2016,06,13,13,29,16.00
2016,06,13,13,30,16.00
2016,06,13,13,31,15.90
2016,06,13,13,32,15.90
2016,06,13,13,33,15.90
2016,06,13,13,34,15.90
2016,06,13,13,35,15.80
2016,06,13,13,36,15.80
2016,06,13,13,37,15.80
2016,06,13,13,38,15.80
2016,06,13,13,39,15.90
2016,06,13,13,40,16.00
2016,06,13,13,41,16.10
2016,06,13,13,42,16.10
2016,06,13,13,43,16.20
2016,06,13,13,44,16.20
2016,06,13,13,45,16.20
2016,06,13,13,46,16.10
2016,06,13,13,47,16.10
2016,06,13,13,48,16.10
2016,06,13,13,49,16.10
2016,06,13,13,50,16.00
2016,06,13,13,51,16.00
2016,06,13,13,52,15.90
2016,06,13,13,53,15.90
2016,06,13,13,54,15.80
2016,06,13,13,55,15.80
2016,06,13,13,56,15.80
2016,06,13,13,57,15.70
2016,06,13,13,58,15.70
2016,06,13,13,59,15.70
2016,06,13,14,00,15.70
2016,06,13,14,01,15.70
2016,06,13,14,02,15.70
2016,06,13,14,03,15.70
2016,06,13,14,04,15.60
2016,06,13,14,05,15.60
2016,06,13,14,06,15.60
2016,06,13,14,07,15.60
2016,06,13,14,08,15.70
2016,06,13,14,09,15.70
2016,06,13,14,10,15.70
2016,06,13,14,11,15.70
2016,06,13,14,12,15.80
2016,06,13,14,13,15.80
2016,06,13,14,14,15.80
2016,06,13,14,15,15.70
2016,06,13,14,16,15.60
2016,06,13,14,17,15.60
2016,06,13,14,18,15.60
2016,06,13,14,19,15.60
2016,06,13,14,20,15.60
2016,06,13,14,21,15.50
2016,06,13,14,22,15.50
2016,06,13,14,23,15.40
2016,06,13,14,24,15.40
2016,06,13,14,25,15.30
2016,06,13,14,26,15.30
2016,06,13,14,27,15.20
2016,06,13,14,28,15.20
2016,06,13,14,29,15.20
2016,06,13,14,30,15.30
2016,06,13,14,31,15.40
2016,06,13,14,32,15.50
2016,06,13,14,33,15.60
2016,06,13,14,34,15.70
2016,06,13,14,35,15.80
2016,06,13,14,36,15.80
2016,06,13,14,37,15.80
2016,06,13,14,38,15.80
2016,06,13,14,39,15.80
2016,06,13,14,40,15.80
2016,06,13,14,41,15.80
2016,06,13,14,42,15.80
2016,06,13,14,43,15.80
2016,06,13,14,44,15.80
2016,06,13,14,45,15.70
2016,06,13,14,46,15.70
2016,06,13,14,47,15.70
2016,06,13,14,48,15.70
2016,06,13,14,49,15.60
2016,06,13,14,50,15.60
2016,06,13,14,51,15.60
2016,06,13,14,52,15.60
2016,06,13,14,53,15.60
2016,06,13,14,54,15.60
2016,06,13,14,55,15.60
2016,06,13,14,56,15.60
2016,06,13,14,57,15.50
2016,06,13,14,58,15.50
2016,06,13,14,59,15.40
2016,06,13,15,00,15.40
2016,06,13,15,01,15.30
2016,06,13,15,02,15.30
2016,06,13,15,03,15.30
2016,06,13,15,04,15.40
2016,06,13,15,05,15.50
2016,06,13,15,06,15.50
2016,06,13,15,07,15.60
2016,06,13,15,08,15.60
2016,06,13,15,09,15.70
2016,06,13,15,10,15.70
2016,06,13,15,11,15.70
2016,06,13,15,12,15.80
2016,06,13,15,13,15.80
2016,06,13,15,14,15.80
2016,06,13,15,15,15.70
2016,06,13,15,16,15.70
2016,06,13,15,17,15.70
2016,06,13,15,18,15.60
2016,06,13,15,19,15.60
2016,06,13,15,20,15.50
2016,06,13,15,21,15.60
2016,06,13,15,22,15.60
2016,06,13,15,23,15.60
2016,06,13,15,24,15.70
2016,06,13,15,25,15.80
2016,06,13,15,26,15.90
2016,06,13,15,27,15.90
2016,06,13,15,28,16.00
2016,06,13,15,29,16.00
2016,06,13,15,30,16.10
2016,06,13,15,31,16.10
2016,06,13,15,32,16.10
2016,06,13,15,33,16.00
2016,06,13,15,34,15.90
2016,06,13,15,35,15.90
2016,06,13,15,36,15.80
2016,06,13,15,37,15.80
2016,06,13,15,38,15.70
2016,06,13,15,39,15.80
2016,06,13,15,40,15.80
2016,06,13,15,41,15.90
2016,06,13,15,42,15.90
2016,06,13,15,43,15.80
2016,06,13,15,44,15.80
2016,06,13,15,45,15.80
2016,06,13,15,46,15.90
2016,06,13,15,47,16.00
2016,06,13,15,48,16.00
2016,06,13,15,49,16.10
2016,06,13,15,50,16.10
2016,06,13,15,51,16.00
2016,06,13,15,52,15.90
2016,06,13,15,53,15.90
2016,06,13,15,54,15.80
2016,06,13,15,55,15.70
2016,06,13,15,56,15.60
2016,06,13,15,57,15.60
2016,06,13,15,58,15.50
2016,06,13,15,59,15.40
2016,06,13,16,00,15.30
2016,06,13,16,01,15.30
2016,06,13,16,02,15.20
2016,06,13,16,03,15.20
2016,06,13,16,04,15.30
2016,06,13,16,05,15.40
2016,06,13,16,06,15.40
2016,06,13,16,07,15.40
2016,06,13,16,08,15.40
2016,06,13,16,09,15.30
2016,06,13,16,10,15.30
2016,06,13,16,11,15.30
2016,06,13,16,12,15.20
2016,06,13,16,13,15.20
2016,06,13,16,14,15.20
2016,06,13,16,15,15.20
2016,06,13,16,16,15.20
2016,06,13,16,17,15.20
2016,06,13,16,18,15.20
2016,06,13,16,19,15.20
2016,06,13,16,20,15.30
2016,06,13,16,21,15.30
2016,06,13,16,22,15.30
2016,06,13,16,23,15.20
2016,06,13,16,24,15.20
2016,06,13,16,25,15.20
2016,06,13,16,26,15.20
2016,06,13,16,27,15.10
2016,06,13,16,28,15.00
2016,06,13,16,29,14.90
2016,06,13,16,30,14.80
2016,06,13,16,31,14.80
2016,06,13,16,32,14.80
2016,06,13,16,33,14.70
2016,06,13,16,34,14.60
2016,06,13,16,35,14.60
2016,06,13,16,36,14.60
2016,06,13,16,37,14.70
2016,06,13,16,38,14.70
2016,06,13,16,39,14.70
2016,06,13,16,40,14.80
2016,06,13,16,41,14.90
2016,06,13,16,42,14.90
2016,06,13,16,43,15.00
2016,06,13,16,44,15.10
2016,06,13,16,45,15.10
2016,06,13,16,46,15.20
2016,06,13,16,47,15.30
2016,06,13,16,48,15.40
2016,06,13,16,49,15.40
2016,06,13,16,50,15.40
2016,06,13,16,51,15.40
2016,06,13,16,52,15.40
2016,06,13,16,53,15.40
2016,06,13,16,54,15.40
2016,06,13,16,55,15.40
2016,06,13,16,56,15.40
2016,06,13,16,57,15.40
2016,06,13,16,58,15.50
2016,06,13,16,59,15.40
2016,06,13,17,00,15.40
2016,06,13,17,01,15.40
2016,06,13,17,02,15.40
2016,06,13,17,03,15.40
2016,06,13,17,04,15.40
2016,06,13,17,05,15.40
2016,06,13,17,06,15.30
2016,06,13,17,07,15.30
2016,06,13,17,08,15.20
2016,06,13,17,09,15.20
2016,06,13,17,10,15.10
2016,06,13,17,11,15.10
2016,06,13,17,12,15.10
2016,06,13,17,13,15.20
2016,06,13,17,14,15.30
2016,06,13,17,15,15.30
2016,06,13,17,16,15.30
2016,06,13,17,17,15.30
2016,06,13,17,18,15.20
2016,06,13,17,19,15.20